THORAD AGENA D DEB, 42497

Orbit data source: Space-Track

THORAD AGENA D DEB, 42497 is space debris in SSO originally from a launch on Wed, 08 Apr 1970 UTC launched from the Air Force Western Test Range (AFWTR). Debris objects in space refer to the collection of defunct objects orbiting the Earth. Examples of debris include non-operational satellites, rocket bodies, and fragments generated from explosions, collisions, or faulty payload assembly.

Loading next visibility...
THORAD AGENA D DEB details
Identifier
42497, 1970-025RB
Orbit
SSO
Last TLE update4 days ago
Origin
Flag of USNASA LeRC (US)
ManufacturerUnknown
MissionSpacecraft
Bus & MotorUnknown
MassUnknown
Launch date (UTC)
1970-04-08 (55 years ago)
Launch vehicleUnknown
Launch site
Air Force Western Test Range (AFWTR)
Object type
Payload
Rocket body
Debris
Shape & HBRUnknown
Radar Cross SectionSmall (<0.1 m²)

Expand to show TLE details & history

TLE from 4 days ago
0 THORAD AGENA D DEB
1 42497U 70025RB  24357.74642607  .00004336  00000-0  31447-2 0  9994
2 42497 100.0280 178.3512 0029492 156.7426 203.5074 13.96797073100164
Epoch: 2024-12-22T17:54Z
Definitive object data (Epoch: 2024-12-22T17:54:51.212Z)
Latitude-0.00009°
Longitude177.85903°
Altitude927.456 km
Speed7.378 km/s
True Right ascension11h 53m 24s
True Declination0° 00' 00"
Sunlit
Object was in daylight at TLE epoch
Visualization TLE readout
Latitude-44.00448°
Longitude-7.74°
Altitude917.14 km
Speed7.395 km/s
Apparent Right ascension00h 27m 12s
Apparent Declination-42° 51' 03"
Sunlit
Object is in daylight
Visualization observer readout
Local Sidereal Time13:27:34
Azimuth109.454° ESE
Elevation-78.319°
Doppler factor1
Orbital elements
Apogee altitude923.635 km
Perigee altitude880.693 km
Semi-major axis7,280.301 km
Eccentricity0.0029492
Inclination100.028°
RAAN178.3512°
Arg. of periapsis156.7426°
True anomaly203.37306°
Mean anomaly203.5074°
Eccentric anomaly203.44018°
Mean motion3.49397 °/min
BSTAR0.0031447
Orbital period103.03 mins
Loading maneuver chart data...

THORAD AGENA D DEB Visibility forecast

Observer location: undefined°, undefined

Span
Click to sort rows by Start time (UTC) header in descending order
Start Az.
Max El. time (UTC)
Max El. Az.
Max El.
End time (UTC)
End Az.
6 mins2024-12-26 23:57:47.564Z55.304° ENE2024-12-27 00:00:47.564Z89.375° E16.879°2024-12-27 00:03:47.564Z125.888° SE
9 mins2024-12-27 01:38:47.564Z5.096° NNE2024-12-27 01:42:47.564Z307.125° NW40.763°2024-12-27 01:47:47.564Z212.709° SW
9 mins2024-12-27 11:30:47.564Z130.551° SE2024-12-27 11:34:47.564Z69.998° E33.962°2024-12-27 11:39:47.564Z0.431° NNE
7 mins2024-12-27 13:13:47.564Z222.311° SW2024-12-27 13:16:47.564Z266.294° W24.455°2024-12-27 13:20:47.564Z316.138° NNW
|